Date,TemperatureHighF,TemperatureAvgF,TemperatureLowF,DewpointHighF,DewpointAvgF,DewpointLowF,HumidityHigh,HumidityAvg,HumidityLow,PressureMaxIn,PressureMinIn,WindSpeedMaxMPH,WindSpeedAvgMPH,GustSpeedMaxMPH,PrecipitationSumIn
2013-1-1,48.9,42.2,35.0,43.0,37.5,32.0,96,84,65,30.27,30.09,8,1,0,0.11
2013-1-2,46.0,41.6,37.4,43.0,36.0,32.0,97,81,64,30.34,30.09,8,2,0,0.00
2013-1-3,43.0,35.7,24.4,38.0,32.7,23.0,94,88,79,30.45,30.31,6,0,0,0.01
2013-1-4,47.4,32.0,20.2,29.0,21.7,18.0,96,70,31,30.52,30.41,14,2,0,0.00
2013-1-5,49.9,36.5,22.0,34.0,25.0,20.0,93,66,33,30.57,30.39,6,1,0,0.00
2013-1-6,54.2,39.9,30.8,39.0,33.0,28.0,97,78,52,30.41,30.20,14,2,0,0.01
2013-1-7,50.0,36.7,25.5,31.0,27.3,23.0,91,71,42,30.60,30.37,8,1,0,0.00
2013-1-8,52.8,34.7,21.5,38.0,29.3,20.0,96,82,54,30.65,30.55,12,1,0,0.00
2013-1-9,59.1,45.9,32.9,51.0,42.0,31.0,97,87,75,30.63,30.53,6,0,0,0.00
2013-1-10,60.2,48.3,40.6,50.0,40.6,34.0,98,78,37,30.69,30.57,5,0,0,0.00
2013-1-11,46.0,43.7,41.6,44.0,42.2,40.0,97,94,84,30.57,30.32,4,0,0,0.22
2013-1-12,66.8,52.4,43.4,61.0,50.5,43.0,98,93,80,30.33,30.25,2,0,0,0.00
2013-1-13,68.5,57.9,50.8,61.0,55.3,50.0,98,91,76,30.25,30.15,5,0,0,0.01
2013-1-14,59.9,55.8,49.9,59.0,55.2,48.0,98,97,94,30.32,30.17,8,1,0,1.98
2013-1-15,49.4,44.4,40.1,48.0,43.4,39.0,97,96,94,30.35,30.24,5,0,0,1.39
2013-1-16,50.8,44.7,39.8,49.0,43.8,39.0,98,96,93,30.24,30.12,4,0,0,0.38
2013-1-17,49.1,41.4,33.3,49.0,40.2,32.0,98,95,91,30.34,30.09,9,2,0,1.36
2013-1-18,45.6,34.8,27.6,33.0,26.8,23.0,94,75,44,30.71,30.37,20,2,0,0.06
2013-1-19,51.9,34.2,23.0,34.0,28.1,22.0,97,81,44,30.67,30.35,7,1,0,0.01
2013-1-20,57.2,38.9,26.1,37.0,29.6,25.0,96,74,34,30.32,30.20,13,2,0,0.01
2013-1-21,55.4,37.9,25.6,38.0,24.0,9.0,97,64,31,30.25,30.08,16,2,0,0.00
2013-1-22,33.9,27.4,18.6,12.0,4.6,-2.0,74,40,22,30.45,30.18,13,4,0,0.00
2013-1-23,42.8,27.1,16.0,25.0,16.4,11.0,87,66,39,30.54,30.22,11,1,0,0.00
2013-1-24,44.0,30.3,19.9,30.0,14.1,5.0,91,53,33,30.68,30.14,16,5,0,0.00
2013-1-25,25.3,22.7,20.0,23.0,16.6,8.0,91,78,54,30.69,30.30,9,1,0,0.00
2013-1-26,40.0,27.4,18.6,34.0,24.5,16.0,94,88,76,30.58,30.30,4,0,0,0.04
2013-1-27,38.2,29.4,20.4,30.0,24.9,19.0,95,83,66,30.78,30.59,6,1,0,0.04
2013-1-28,54.5,39.0,32.5,46.0,35.3,29.0,96,87,69,30.65,30.40,9,1,0,0.04
2013-1-29,67.3,44.9,31.2,52.0,40.7,30.0,98,87,52,30.41,30.18,6,0,0,0.00
2013-1-30,65.6,59.9,50.1,61.0,57.6,45.0,98,92,82,30.18,29.52,15,4,0,1.84
2013-1-31,50.8,38.4,29.2,45.0,26.4,19.0,85,63,47,30.14,29.56,12,4,0,0.01
2013-2-1,38.6,28.0,19.0,31.0,13.4,5.0,89,57,35,30.56,30.03,18,5,0,0.00
2013-2-2,37.7,27.8,16.4,29.0,17.2,13.0,89,67,41,30.57,30.22,12,2,0,0.00
2013-2-3,45.2,37.6,30.0,31.0,26.2,22.0,89,65,49,30.21,30.03,18,4,0,0.00
2013-2-4,46.3,32.6,23.3,29.0,23.6,20.0,91,72,45,30.30,30.16,11,1,0,0.00
2013-2-5,55.9,37.9,28.7,38.0,30.8,26.0,92,78,49,30.16,30.09,12,2,0,0.00
2013-2-6,60.0,38.3,25.5,40.0,27.9,22.0,97,72,24,30.46,30.16,11,1,0,0.00
2013-2-7,41.4,35.5,29.0,37.0,32.4,25.0,95,88,79,30.51,30.24,7,0,0,0.32
2013-2-8,55.6,43.5,37.6,45.0,35.7,26.0,97,77,41,30.26,30.02,16,4,0,0.03
2013-2-9,55.7,39.1,26.6,30.0,23.1,16.0,87,57,23,30.53,30.25,12,2,0,0.00
2013-2-10,50.4,36.9,24.5,37.0,27.3,22.0,94,72,36,30.63,30.35,8,1,0,0.12
2013-2-11,56.6,46.0,38.8,54.0,42.7,29.0,97,89,43,30.35,30.08,8,1,0,0.05
2013-2-12,58.7,48.9,43.2,41.0,29.6,21.0,88,50,24,30.23,30.07,13,3,0,0.02
2013-2-13,45.1,42.3,39.0,44.0,39.6,32.0,96,90,73,30.10,29.78,8,1,0,0.18
2013-2-14,53.6,38.9,27.3,36.0,30.2,25.0,96,74,41,30.21,30.01,9,1,0,0.00
2013-2-15,57.5,40.9,25.7,39.0,31.2,24.0,97,72,39,30.27,30.09,20,3,0,0.02
2013-2-16,39.0,34.9,27.8,30.0,22.1,11.0,73,60,43,30.16,30.00,17,5,0,0.00
2013-2-17,36.9,27.3,19.8,17.0,10.8,5.0,82,52,28,30.44,30.14,25,5,0,0.00
2013-2-18,52.2,31.7,16.1,30.0,20.3,13.0,88,67,35,30.58,30.36,13,1,0,0.00
2013-2-19,52.8,38.8,26.5,42.0,29.1,16.0,94,72,33,30.36,30.01,18,3,0,0.06
2013-2-20,50.2,37.1,25.0,21.0,15.2,7.0,78,46,18,30.33,30.18,11,2,0,0.00
2013-2-21,55.6,37.8,21.2,34.0,22.5,15.0,85,59,24,30.45,30.27,8,1,0,0.00
2013-2-22,39.2,34.0,32.8,34.0,32.4,31.0,96,93,80,30.49,30.32,4,0,0,0.20
2013-2-23,49.5,40.0,33.8,45.0,37.9,33.0,100,92,83,30.33,30.00,6,0,0,0.15
2013-2-24,58.2,43.1,28.8,38.0,30.1,23.0,98,66,30,30.22,30.00,13,3,0,0.00
2013-2-25,42.6,32.4,26.5,30.0,26.2,24.0,91,79,57,30.39,30.22,5,1,0,0.00
2013-2-26,40.0,36.1,31.4,39.0,33.8,25.0,97,91,67,30.34,29.77,7,1,0,1.15
2013-2-27,55.7,44.0,35.4,40.0,36.5,33.0,97,77,49,29.95,29.80,11,2,0,0.01
2013-2-28,43.5,39.5,36.8,33.0,28.6,26.0,82,66,52,30.04,29.87,15,4,0,0.00
2013-3-1,42.8,38.4,32.0,30.0,27.8,26.0,85,67,52,30.09,30.02,11,2,0,0.00
2013-3-2,43.3,34.9,30.6,30.0,24.9,18.0,89,69,49,30.12,30.00,13,4,0,0.00
2013-3-3,37.7,31.9,27.4,20.0,17.4,14.0,67,56,46,30.18,30.09,14,6,0,0.00
2013-3-4,54.7,36.7,24.5,26.0,16.9,9.0,78,49,16,30.29,30.16,15,3,0,0.00
2013-3-5,47.0,38.9,30.2,39.0,31.4,20.0,96,77,38,30.23,29.77,5,1,0,0.70
2013-3-6,41.3,36.8,32.7,39.0,27.0,22.0,96,68,57,30.27,29.77,24,9,0,0.01
2013-3-7,43.9,37.6,34.0,29.0,26.2,23.0,73,64,55,30.45,30.28,21,7,0,0.00
2013-3-8,51.7,40.8,32.8,28.0,25.5,23.0,70,56,37,30.50,30.40,20,6,0,0.00
2013-3-9,62.3,42.0,26.0,36.0,29.5,23.0,90,66,32,30.53,30.40,7,1,0,0.00
2013-3-10,63.8,46.0,30.8,40.0,34.4,29.0,95,69,33,30.47,30.33,8,2,0,0.00
2013-3-11,53.9,44.2,34.2,48.0,38.5,32.0,95,82,55,30.36,30.03,6,0,0,0.21
2013-3-12,58.4,51.4,37.7,51.0,42.0,32.0,98,73,43,30.13,29.88,13,4,0,0.50
2013-3-13,47.0,39.9,29.3,33.0,25.5,17.0,88,58,42,30.34,30.11,17,5,0,0.00
2013-3-14,48.9,37.0,29.4,27.0,18.1,14.0,78,49,28,30.44,30.33,16,6,0,0.00
2013-3-15,62.9,41.9,24.4,42.0,29.6,21.0,89,66,33,30.37,30.06,13,2,0,0.00
2013-3-16,77.6,56.4,36.6,55.0,43.9,34.0,95,69,33,30.06,29.80,18,3,0,0.01
2013-3-17,54.8,46.6,38.1,52.0,43.9,36.0,97,90,82,30.32,30.00,8,2,0,0.00
2013-3-18,38.0,36.4,35.4,37.0,35.0,34.0,100,94,92,30.33,30.16,6,1,0,0.10
2013-3-19,59.4,51.6,35.8,34.0,24.4,13.0,63,37,23,30.23,30.07,14,5,0,0.00
2013-3-20,55.3,41.1,26.9,28.0,19.0,8.0,84,48,15,30.26,29.97,13,3,0,0.00
2013-3-21,39.0,33.0,25.6,29.0,14.6,10.0,69,48,35,30.18,29.95,17,6,0,0.00
2013-3-22,52.8,34.7,18.0,27.0,15.9,11.0,85,51,24,30.27,30.12,10,2,0,0.00
2013-3-23,54.3,43.0,33.9,36.0,27.4,13.0,88,56,30,30.21,30.06,6,1,0,0.00
2013-3-24,39.4,36.9,33.3,38.0,34.9,32.0,95,92,87,30.09,29.74,8,1,0,0.74
2013-3-25,43.0,36.6,32.6,34.0,28.3,23.0,96,74,50,30.00,29.72,16,3,0,0.04
2013-3-26,44.5,38.5,35.1,29.0,25.3,23.0,67,59,48,30.32,30.00,16,6,0,0.00
2013-3-27,43.4,37.0,29.8,28.0,23.7,21.0,81,60,44,30.44,30.32,14,3,0,0.00
2013-3-28,51.6,40.1,29.6,28.0,24.6,22.0,82,56,36,30.47,30.39,12,4,0,0.00
2013-3-29,58.7,42.6,24.0,31.0,25.6,21.0,92,57,24,30.53,30.36,10,2,0,0.00
2013-3-30,62.3,48.0,32.0,39.0,32.7,29.0,90,60,29,30.41,30.22,7,1,0,0.00
2013-3-31,63.7,50.1,41.0,55.0,46.3,37.0,97,87,62,30.22,29.95,10,1,0,0.20
2013-4-1,62.8,50.8,35.4,50.0,40.3,34.0,98,71,44,30.15,29.99,9,2,0,0.00
2013-4-2,57.3,44.4,28.2,35.0,25.0,17.0,95,53,21,30.32,30.15,18,4,0,0.00
2013-4-3,56.6,44.8,27.0,32.0,22.9,16.0,81,46,23,30.47,30.30,9,2,0,0.00
2013-4-4,40.0,35.6,32.3,35.0,29.5,21.0,96,80,47,30.52,30.17,6,1,0,0.80
2013-4-5,61.6,47.1,35.7,44.0,37.7,35.0,97,74,38,30.22,30.10,14,3,0,0.05
2013-4-6,64.0,48.0,31.5,43.0,35.9,30.0,95,68,35,30.41,30.23,9,2,0,0.00
2013-4-7,68.6,51.4,33.4,48.0,41.1,32.0,96,71,45,30.40,30.22,10,2,0,0.00
2013-4-8,76.1,57.4,39.6,56.0,47.0,38.0,97,72,44,30.31,30.15,13,2,0,0.00
2013-4-9,82.1,63.3,44.2,58.0,51.4,43.0,98,70,36,30.31,30.17,14,2,0,0.00
2013-4-10,84.5,67.2,49.1,60.0,54.9,48.0,97,69,38,30.21,30.03,15,2,0,0.00
2013-4-11,79.2,65.5,49.1,64.0,56.5,48.0,97,75,46,30.07,29.84,17,3,0,0.11
2013-4-12,76.9,66.3,57.6,66.0,54.4,41.0,97,69,33,29.93,29.73,15,4,0,0.85
2013-4-13,72.1,57.8,40.5,46.0,38.6,32.0,90,54,23,30.16,29.92,13,2,0,0.00
2013-4-14,74.9,58.2,37.7,53.0,42.2,36.0,95,61,31,30.24,30.12,13,2,0,0.00
2013-4-15,62.5,55.4,53.1,55.0,53.6,50.0,96,94,64,30.36,30.16,6,1,0,0.57
2013-4-16,75.3,62.8,56.0,63.0,58.1,54.0,98,86,64,30.44,30.29,10,1,0,0.00
2013-4-17,74.7,63.0,53.5,64.0,58.0,52.0,98,85,62,30.35,30.24,6,1,0,0.02
2013-4-18,76.4,64.4,52.2,63.0,57.8,51.0,98,81,53,30.29,30.08,10,2,0,0.00
2013-4-19,68.5,64.1,52.4,65.0,59.5,41.0,95,85,66,30.07,29.80,16,4,0,0.59
2013-4-20,60.7,50.3,39.2,40.0,33.8,28.0,85,55,31,30.44,30.02,14,4,0,0.00
2013-4-21,59.4,46.6,34.5,43.0,35.6,30.0,90,68,44,30.66,30.45,8,1,0,0.00
2013-4-22,61.7,47.4,34.8,40.0,34.9,30.0,94,66,32,30.63,30.41,8,1,0,0.00
2013-4-23,68.3,52.8,38.2,53.0,43.7,34.0,92,73,50,30.46,30.24,9,1,0,0.00
2013-4-24,71.6,57.5,41.2,59.0,51.1,40.0,97,81,60,30.27,30.08,16,2,0,0.01
2013-4-25,68.4,54.2,41.0,50.0,36.7,26.0,81,56,24,30.45,30.19,17,4,0,0.00
2013-4-26,66.8,52.1,34.2,47.0,37.9,32.0,94,63,32,30.60,30.46,9,1,0,0.00
2013-4-27,61.5,55.6,50.1,55.0,48.8,43.0,95,79,54,30.51,30.39,4,0,0,0.06
2013-4-28,54.6,53.3,52.2,54.0,52.2,51.0,97,96,94,30.39,30.18,4,0,0,0.68
2013-4-29,66.5,58.3,53.0,60.0,55.8,52.0,98,91,75,30.22,30.10,2,0,0,0.05
2013-4-30,72.6,61.8,54.0,60.0,56.6,53.0,98,84,61,30.33,30.14,5,0,0,0.00
2013-5-1,66.1,60.7,56.3,57.0,54.5,51.0,93,80,68,30.46,30.32,9,1,0,0.00
2013-5-2,61.8,57.6,53.4,56.0,53.0,49.0,91,84,77,30.47,30.39,4,0,0,0.01
2013-5-3,65.3,58.3,52.6,54.0,49.8,44.0,93,74,56,30.41,30.29,10,1,0,0.00
2013-5-4,61.6,52.9,48.0,49.0,45.0,42.0,88,75,56,30.32,30.19,11,2,0,0.00
2013-5-5,53.4,51.1,48.8,52.0,46.4,38.0,95,84,65,30.25,30.10,8,2,0,0.40
2013-5-6,63.6,55.9,52.5,60.0,54.2,51.0,96,94,84,30.11,29.95,8,1,0,0.67
2013-5-7,65.7,55.2,51.5,58.0,52.8,50.0,98,92,63,30.09,29.98,12,1,0,0.19
2013-5-8,63.2,55.5,49.9,60.0,53.9,49.0,97,94,85,30.17,30.05,6,0,0,0.01
2013-5-9,78.9,61.6,46.1,62.0,53.8,45.0,98,79,40,30.22,30.13,7,1,0,0.01
2013-5-10,79.7,65.4,51.1,62.0,57.0,50.0,97,77,51,30.21,30.05,18,1,0,0.00
2013-5-11,73.9,66.4,60.6,63.0,60.8,59.0,96,83,62,30.06,29.90,7,1,0,0.00
2013-5-12,64.3,57.8,42.6,58.0,41.6,31.0,91,58,32,30.19,29.96,13,3,0,0.00
2013-5-13,64.7,49.7,35.0,43.0,33.1,26.0,96,60,25,30.34,30.20,12,2,0,0.00
2013-5-14,71.1,53.8,34.7,49.0,40.8,32.0,95,65,37,30.41,30.19,11,1,0,0.00
2013-5-15,89.9,65.7,46.3,63.0,52.3,45.0,97,69,30,30.20,30.03,8,1,0,0.00
2013-5-16,82.8,67.6,52.1,62.0,56.0,51.0,97,70,40,30.13,30.05,10,1,0,0.00
2013-5-17,80.3,66.2,53.5,65.0,59.0,52.0,96,80,51,30.23,30.12,7,1,0,0.11
2013-5-18,68.7,64.2,58.5,67.0,62.7,57.0,98,95,87,30.27,30.20,2,0,0,0.16
2013-5-19,72.4,66.3,63.1,69.0,64.8,62.0,98,95,86,30.25,30.15,5,0,0,0.39
2013-5-20,79.1,69.0,64.1,71.0,66.6,63.0,98,92,60,30.23,30.13,6,0,0,0.21
2013-5-21,82.6,68.2,60.7,73.0,65.2,60.0,98,90,66,30.17,30.08,10,0,0,0.00